Regional Weather Roundup
Issued by NWS Goodland, KS

Home | Current Version | Previous Version | Graphics & Text | Print | Product List | Glossary On
Versions: 1 2 3 4 5 6 7 8 9 10 11 12 13 14 15 16 17 18 19 20 21 22 23 24 25 26 27 28 29 30 31 32 33 34 35 36 37 38 39 40 41 42 43 44 45 46 47 48 49 50
000
ASUS43 KGLD 312208
RWRGLD

GOODLAND FORECAST AREA HOURLY WEATHER ROUNDUP
NATIONAL WEATHER SERVICE GOODLAND KS
400 PM MDT FRI JUL 31 2015

...OFFICIAL OBSERVATIONS...

CITY           SKY/WX    TMP DP  RH WIND       PRES   REMARKS
GOODLAND KS    MOSUNNY   89  58  34 S12       30.17F
HILL CITY KS   SUNNY     93  59  31 VRB5      30.10F
IMPERIAL NEB   SUNNY     94  47  20 NE7       30.14F
MCCOOK NEB     SUNNY     95  56  26 S7        30.10F
AKRON CO       MOSUNNY   89  44  20 SE14G20   30.22F
BURLINGTON CO  SUNNY     87  54  32 S13       30.21F
LIMON CO       SUNNY     83  51  33 MISG      30.27F
$$

...UNOFFICIAL OBSERVATIONS...

CITY           SKY/WX    TMP DP  RH WIND       PRES   REMARKS
COLBY KS       SUNNY     91  61  35 SE9       30.15F
NORTON KS      SUNNY     91  55  29 S5        30.09
SHARON SPRINGS   N/A     89  64  42 S7          N/A
KIT CARSON CO    N/A     85  58  40 MISG        N/A
YUMA CO          N/A     89  53  28 SE6         N/A
$$


USA.gov is the U.S. government's official web portal to all federal, state and local government web resources and services.